When you browse on this site, cookies collect data to enhance your experience and personalize the content and advertising you see.
Visit our Privacy Policy to learn more. By continuing to use the site, you agree to this use of cookies and data.
EN

Hourly Weather Zhlobin

Today, 10 July, Friday

Time Temperature Precipitation Wind Pressure Humidity
00:00 +13°C° 0 mm 1 mps 752 mmHg 82%
01:00 +12°C° 0 mm 1 mps 752 mmHg 83%
02:00 +12°C° 0 mm 1 mps 752 mmHg 83%
03:00 +12°C° 0 mm 2 mps 752 mmHg 85%
04:00 +12°C° 0 mm 2 mps 752 mmHg 87%
05:00 +12°C° 0 mm 2 mps 752 mmHg 89%
06:00 +13°C° 0 mm 3 mps 752 mmHg 84%
07:00 +16°C° 0 mm 3 mps 752 mmHg 79%
08:00 +18°C° 0 mm 4 mps 752 mmHg 73%
09:00 +19°C° 0 mm 4 mps 752 mmHg 70%
10:00 +21°C° 0 mm 5 mps 752 mmHg 66%
11:00 +22°C° 0 mm 6 mps 751 mmHg 62%
12:00 +23°C° 0 mm 6 mps 751 mmHg 61%
13:00 +25°C° 0 mm 5 mps 751 mmHg 60%
14:00 +25°C° 0 mm 5 mps 750 mmHg 60%
15:00 +25°C° 0 mm 5 mps 750 mmHg 63%
16:00 +25°C° 0 mm 5 mps 750 mmHg 65%
17:00 +25°C° 0 mm 5 mps 750 mmHg 68%
18:00 +23°C° 0.4 mm 4 mps 750 mmHg 75%
19:00 +22°C° 0.4 mm 4 mps 750 mmHg 81%
20:00 +21°C° 0.4 mm 4 mps 750 mmHg 87%
21:00 +20°C° 0.1 mm 4 mps 750 mmHg 89%
22:00 +20°C° 0.1 mm 4 mps 750 mmHg 91%
23:00 +19°C° 0.1 mm 4 mps 750 mmHg 93%

Tomorrow, 11 July, Saturday

Time Temperature Precipitation Wind Pressure Humidity
00:00 +19°C° 0.1 mm 4 mps 750 mmHg 93%
01:00 +19°C° 0.1 mm 4 mps 750 mmHg 94%
02:00 +19°C° 0.1 mm 4 mps 750 mmHg 94%
03:00 +19°C° 0 mm 4 mps 750 mmHg 94%
04:00 +19°C° 0 mm 4 mps 750 mmHg 95%
05:00 +19°C° 0 mm 4 mps 750 mmHg 95%
06:00 +20°C° 0 mm 4 mps 750 mmHg 90%
07:00 +21°C° 0 mm 4 mps 750 mmHg 86%
08:00 +23°C° 0 mm 4 mps 751 mmHg 82%
09:00 +25°C° 0 mm 4 mps 751 mmHg 76%
10:00 +27°C° 0 mm 4 mps 751 mmHg 70%
11:00 +29°C° 0 mm 4 mps 751 mmHg 64%
12:00 +29°C° 0 mm 4 mps 750 mmHg 62%
13:00 +30°C° 0 mm 4 mps 750 mmHg 59%
14:00 +32°C° 0 mm 4 mps 750 mmHg 57%
15:00 +30°C° 0.4 mm 4 mps 750 mmHg 60%
16:00 +30°C° 0.4 mm 4 mps 750 mmHg 63%
17:00 +30°C° 0.4 mm 3 mps 750 mmHg 66%
18:00 +28°C° 0.6 mm 3 mps 750 mmHg 72%
19:00 +26°C° 0.6 mm 3 mps 750 mmHg 77%
20:00 +24°C° 0.6 mm 3 mps 750 mmHg 83%
21:00 +22°C° 0.3 mm 3 mps 750 mmHg 87%
22:00 +21°C° 0.3 mm 2 mps 750 mmHg 90%
23:00 +19°C° 0.3 mm 2 mps 750 mmHg 94%

Day after tomorrow, 12 July, Sunday

Time Temperature Precipitation Wind Pressure Humidity
00:00 +19°C° 0.1 mm 2 mps 750 mmHg 95%
01:00 +18°C° 0.1 mm 2 mps 750 mmHg 96%
02:00 +18°C° 0.1 mm 2 mps 750 mmHg 97%
03:00 +17°C° 0.1 mm 2 mps 750 mmHg 97%
04:00 +17°C° 0.1 mm 3 mps 750 mmHg 96%
05:00 +16°C° 0.1 mm 3 mps 749 mmHg 96%
06:00 +17°C° 0 mm 2 mps 750 mmHg 94%
07:00 +18°C° 0 mm 2 mps 750 mmHg 92%
08:00 +19°C° 0 mm 2 mps 750 mmHg 89%
09:00 +19°C° 0 mm 2 mps 750 mmHg 87%
10:00 +20°C° 0 mm 3 mps 749 mmHg 85%
11:00 +20°C° 0 mm 4 mps 749 mmHg 83%
12:00 +21°C° 0.1 mm 4 mps 749 mmHg 82%
13:00 +21°C° 0.1 mm 4 mps 749 mmHg 80%
14:00 +22°C° 0.1 mm 4 mps 749 mmHg 78%
15:00 +22°C° 0.2 mm 4 mps 748 mmHg 80%
16:00 +21°C° 0.2 mm 4 mps 748 mmHg 82%
17:00 +21°C° 0.2 mm 5 mps 748 mmHg 83%
18:00 +20°C° 0.5 mm 5 mps 748 mmHg 86%
19:00 +17°C° 0.5 mm 5 mps 748 mmHg 89%
20:00 +16°C° 0.5 mm 5 mps 748 mmHg 92%
21:00 +15°C° 0.6 mm 5 mps 747 mmHg 93%
22:00 +14°C° 0.6 mm 5 mps 747 mmHg 94%
23:00 +13°C° 0.6 mm 6 mps 747 mmHg 95%

13 July, Monday

Time Temperature Precipitation Wind Pressure Humidity
00:00 +13°C° 0.3 mm 6 mps 747 mmHg 95%
01:00 +12°C° 0.3 mm 5 mps 747 mmHg 95%
02:00 +12°C° 0.3 mm 5 mps 747 mmHg 95%
03:00 +11°C° 0.7 mm 6 mps 746 mmHg 95%
04:00 +11°C° 0.7 mm 6 mps 746 mmHg 96%
05:00 +10°C° 0.7 mm 6 mps 746 mmHg 96%
06:00 +10°C° 0.3 mm 6 mps 746 mmHg 95%
07:00 +11°C° 0.3 mm 6 mps 746 mmHg 95%
08:00 +11°C° 0.3 mm 6 mps 746 mmHg 95%
09:00 +11°C° 0.5 mm 6 mps 746 mmHg 94%
10:00 +11°C° 0.5 mm 6 mps 746 mmHg 94%
11:00 +11°C° 0.5 mm 6 mps 746 mmHg 94%
12:00 +11°C° 0.1 mm 6 mps 746 mmHg 92%
13:00 +13°C° 0.1 mm 6 mps 746 mmHg 90%
14:00 +13°C° 0.1 mm 6 mps 746 mmHg 88%
15:00 +14°C° 0 mm 6 mps 746 mmHg 85%
16:00 +14°C° 0 mm 6 mps 746 mmHg 81%
17:00 +15°C° 0 mm 6 mps 745 mmHg 78%
18:00 +14°C° 0 mm 5 mps 745 mmHg 81%
19:00 +13°C° 0 mm 4 mps 745 mmHg 83%
20:00 +13°C° 0 mm 4 mps 745 mmHg 86%
21:00 +13°C° 0 mm 4 mps 745 mmHg 84%
22:00 +13°C° 0 mm 4 mps 745 mmHg 83%
23:00 +12°C° 0 mm 4 mps 744 mmHg 82%

14 July, Tuesday

Time Temperature Precipitation Wind Pressure Humidity
00:00 +12°C° 0.1 mm 4 mps 744 mmHg 84%
01:00 +12°C° 0.1 mm 5 mps 744 mmHg 86%
02:00 +12°C° 0.1 mm 5 mps 744 mmHg 88%
03:00 +12°C° 0.1 mm 5 mps 744 mmHg 89%
04:00 +12°C° 0.1 mm 5 mps 743 mmHg 91%
05:00 +12°C° 0.1 mm 5 mps 743 mmHg 92%
06:00 +11°C° 0.2 mm 6 mps 743 mmHg 92%
07:00 +11°C° 0.2 mm 6 mps 743 mmHg 92%
08:00 +11°C° 0.2 mm 6 mps 743 mmHg 92%
09:00 +13°C° 0.4 mm 6 mps 743 mmHg 92%
10:00 +13°C° 0.4 mm 6 mps 743 mmHg 91%
11:00 +13°C° 0.4 mm 6 mps 743 mmHg 91%
12:00 +13°C° 1.1 mm 6 mps 743 mmHg 90%
13:00 +14°C° 1.1 mm 6 mps 744 mmHg 90%
14:00 +14°C° 1.1 mm 6 mps 744 mmHg 89%
15:00 +14°C° 0.7 mm 5 mps 744 mmHg 90%
16:00 +14°C° 0.7 mm 5 mps 744 mmHg 90%
17:00 +14°C° 0.7 mm 4 mps 744 mmHg 91%
18:00 +14°C° 0.1 mm 4 mps 744 mmHg 91%
19:00 +14°C° 0.1 mm 4 mps 744 mmHg 91%
20:00 +14°C° 0.1 mm 4 mps 744 mmHg 91%
21:00 +13°C° 0 mm 4 mps 744 mmHg 91%
22:00 +13°C° 0 mm 4 mps 744 mmHg 90%
23:00 +13°C° 0 mm 4 mps 744 mmHg 90%

15 July, Wednesday

Time Temperature Precipitation Wind Pressure Humidity
00:00 +13°C° 0 mm 4 mps 745 mmHg 91%
01:00 +13°C° 0 mm 5 mps 745 mmHg 92%
02:00 +13°C° 0 mm 5 mps 745 mmHg 93%
03:00 +12°C° 0 mm 5 mps 745 mmHg 93%
04:00 +12°C° 0 mm 5 mps 746 mmHg 93%
05:00 +12°C° 0 mm 5 mps 746 mmHg 93%
06:00 +13°C° 0 mm 5 mps 746 mmHg 89%
07:00 +14°C° 0 mm 5 mps 746 mmHg 84%
08:00 +15°C° 0 mm 5 mps 747 mmHg 80%
09:00 +16°C° 0 mm 5 mps 747 mmHg 75%
10:00 +19°C° 0 mm 5 mps 747 mmHg 70%
11:00 +20°C° 0 mm 5 mps 747 mmHg 65%
12:00 +21°C° 0.1 mm 5 mps 747 mmHg 63%
13:00 +21°C° 0.1 mm 5 mps 747 mmHg 62%
14:00 +22°C° 0.1 mm 5 mps 748 mmHg 60%
15:00 +21°C° 0 mm 5 mps 748 mmHg 62%
16:00 +21°C° 0 mm 4 mps 748 mmHg 65%
17:00 +21°C° 0 mm 4 mps 748 mmHg 67%
18:00 +19°C° 0 mm 3 mps 748 mmHg 71%
19:00 +18°C° 0 mm 3 mps 748 mmHg 76%
20:00 +16°C° 0 mm 2 mps 748 mmHg 80%
21:00 +16°C° 0 mm 2 mps 749 mmHg 83%
22:00 +15°C° 0 mm 2 mps 749 mmHg 85%
23:00 +14°C° 0 mm 2 mps 749 mmHg 87%
Show more